Cosmos 614 Rocket - Orbit

View from above orbital plane
View from above orbital plane
View from above satellite
View from above satellite

Ground track
Ground track

The orbit data is extracted from the following two-line orbital elements,

1 06966U 73098B   13145.35407367  .00000283  00000-0  93583-4 0  9831
2 06966 074.0577 091.6315 0020496 080.2917 073.3005 14.42226268 71566
Epoch (UTC): 25 May 2013 08:29:51
Eccentricity: 0.0020496
inclination: 74.0577°
perigee height: 736 km
apogee height: 766 km
right ascension of ascending node: 91.6315°
argument of perigee: 80.2917°
revolutions per day: 14.42226268
mean anomaly at epoch: 73.3005°
orbit number at epoch: 7156

The dashed part of the orbit path shows where the satellite is in the earth's shadow,  

Developed and maintained by Chris Peat, Heavens-Above GmbH. Please read the updated FAQ before sending e-mail. Imprint. DLR